Houston, TX

2:07 PM CDT on July 22, 2017 (GMT -0500)
Hobby

Weather History for KHOU - May, 2014

Change the Weather History Date:

Saturday, May 10, 2014

  Actual Average Record
Temperature  
Mean Temperature 75 °F 76 °F  
Max Temperature 87 °F 85 °F 94 °F (1927)
Min Temperature 63 °F 66 °F 51 °F (1984)
Cooling Degree Days 10 11  
Month to date cooling degree days 83 95  
Year to date cooling degree days 330 376  
Growing Degree Days 26 (Base 50)    
Moisture  
Dew Point 69 °F    
Average Humidity 81    
Maximum Humidity 100    
Minimum Humidity 61    
Precipitation  
Precipitation T in 0.17 in 5.89 in (1968)
Month to date precipitation 0.37 1.64  
Year to date precipitation 7.73 14.94  
Sea Level Pressure  
Sea Level Pressure 29.90 in    
Wind  
Wind Speed 6 mph (SE)    
Max Wind Speed 25 mph    
Max Gust Speed 29 mph    
Visibility 10 miles    
Events Rain    
T = Trace of Precipitation, MM = Missing Value Source: NWS Daily Summary

Daily Weather History Graph

Daily Weather History Graph

Search for Another Location

Airport or City:

Trip Planner

Search our weather history database for the weather conditions in past years. The results will help you decide how hot, cold, wet, or windy it might be!

Date:

Astronomy

May. 10, 2014 Rise Set
Actual Time 6:31 AM CDT 8:03 PM CDT
Civil Twilight 6:05 AM CDT 8:29 PM CDT
Nautical Twilight 5:35 AM CDT 9:00 PM CDT
Astronomical Twilight 5:02 AM CDT 9:32 PM CDT
Moon 4:18 PM CDT (5/10) 3:45 AM CDT (5/10)
Length of Visible Light 14h 23m
Length of Day
13h 32m
Waxing Gibbous, 82% of the Moon is Illuminated
May 10
Waxing Gibbous
May 14
Full
May 21
Last Quarter
May 28
New
Jun 5
First Quarter

Hourly Weather History & Observations

Time (CDT) Temp. Heat Index Dew Point Humidity Pressure Visibility Wind Dir Wind Speed Gust Speed Precip Events Conditions
12:53 AM 68.0 °F - 62.1 °F 81% 29.89 in 10.0 mi Calm Calm - N/A   Mostly Cloudy
1:53 AM 66.9 °F - 62.1 °F 84% 29.86 in 10.0 mi Calm Calm - N/A   Overcast
2:53 AM 66.9 °F - 63.0 °F 87% 29.88 in 10.0 mi Calm Calm - N/A   Overcast
3:53 AM 68.0 °F - 64.0 °F 87% 29.89 in 10.0 mi ENE 4.6 mph - N/A   Overcast
4:53 AM 68.0 °F - 64.0 °F 87% 29.90 in 10.0 mi Calm Calm - N/A   Overcast
5:53 AM 68.0 °F - 64.9 °F 90% 29.92 in 10.0 mi Calm Calm - N/A   Mostly Cloudy
6:53 AM 69.1 °F - 66.9 °F 93% 29.93 in 10.0 mi NE 3.5 mph - N/A   Scattered Clouds
7:43 AM 71.6 °F - 68.0 °F 88% 29.93 in 10.0 mi ESE 4.6 mph - N/A   Mostly Cloudy
7:53 AM 72.0 °F - 69.1 °F 91% 29.94 in 10.0 mi SE 4.6 mph - N/A   Overcast
8:53 AM 75.0 °F - 70.0 °F 84% 29.94 in 8.0 mi ESE 8.1 mph - N/A   Overcast
9:53 AM 78.1 °F - 72.0 °F 81% 29.95 in 9.0 mi SSE 11.5 mph - N/A   Mostly Cloudy
10:12 AM 80.6 °F 84.6 °F 71.6 °F 74% 29.93 in 9.0 mi SE 15.0 mph 19.6 mph N/A   Mostly Cloudy
10:53 AM 81.0 °F 84.4 °F 70.0 °F 69% 29.95 in 10.0 mi SSE 12.7 mph - N/A   Mostly Cloudy
11:53 AM 84.9 °F 90.1 °F 71.1 °F 63% 29.94 in 10.0 mi SE 16.1 mph 20.7 mph N/A   Mostly Cloudy
12:53 PM 84.9 °F 89.4 °F 70.0 °F 61% 29.92 in 10.0 mi SSE 15.0 mph 23.0 mph N/A   Mostly Cloudy
1:53 PM 86.0 °F 91.5 °F 71.1 °F 61% 29.91 in 10.0 mi SSE 10.4 mph 17.3 mph N/A   Mostly Cloudy
2:53 PM 86.0 °F 90.7 °F 70.0 °F 59% 29.89 in 10.0 mi SE 15.0 mph 20.7 mph N/A   Mostly Cloudy
3:53 PM 82.0 °F 86.3 °F 71.1 °F 69% 29.88 in 10.0 mi ESE 11.5 mph - N/A   Mostly Cloudy
4:53 PM 82.0 °F 86.3 °F 71.1 °F 69% 29.86 in 10.0 mi ESE 15.0 mph 21.9 mph N/A   Mostly Cloudy
5:53 PM 82.9 °F 87.5 °F 71.1 °F 67% 29.85 in 10.0 mi SSE 13.8 mph - N/A   Mostly Cloudy
6:53 PM 81.0 °F 84.9 °F 71.1 °F 72% 29.84 in 10.0 mi SSE 8.1 mph - N/A   Mostly Cloudy
7:53 PM 77.0 °F - 71.1 °F 82% 29.85 in 10.0 mi SSE 8.1 mph - N/A   Mostly Cloudy
8:53 PM 77.0 °F - 72.0 °F 84% 29.86 in 10.0 mi SE 8.1 mph - N/A   Mostly Cloudy
9:46 PM 75.2 °F - 73.4 °F 94% 29.86 in 10.0 mi SSE 8.1 mph - 0.00 in Rain Light Rain
9:53 PM 75.9 °F - 73.0 °F 91% 29.88 in 10.0 mi SE 8.1 mph - 0.00 in   Overcast
10:53 PM 75.9 °F - 73.0 °F 91% 29.88 in 10.0 mi SE 6.9 mph - N/A   Overcast
11:53 PM 75.9 °F - 73.0 °F 91% 29.89 in 8.0 mi SE 9.2 mph - 0.00 in Rain Light Rain